AirNav   Air Wisconsin Up To $57,000 Bonus
 
 1252 users online  

VG12 Simpsonville Airport
Rhoadesville, Virginia, USA

GOING TO RHOADESVILLE?


FAA INFORMATION EFFECTIVE 19 MAY 2022

Location

FAA Identifier: VG12
Lat/Long: 38-20-00.4700N 077-51-58.9800W
38-20.007833N 077-51.983000W
38.3334639,-77.8663833
(estimated)
Elevation: 400 ft. / 122 m (estimated)
Variation: 09W (1995)
From city: 5 miles NE of RHOADESVILLE, VA
Time zone: UTC -4 (UTC -5 during Standard Time)
Zip code: 22542

Airport Operations

Airport use: Private use. Permission required prior to landing
Activation date: 02/1998
Control tower: no
ARTCC: WASHINGTON CENTER
FSS: LEESBURG FLIGHT SERVICE STATION
Attendance: UNATNDD
Wind indicator: yes
Segmented circle: no

Airport Communications

WX AWOS-3 at OMH (10 nm SW): 118.075 (540-672-0505)
WX AWOS-3 at CJR (12 nm N): 119.325 (540-727-0523)
WX AWOS-3 at HWY (17 nm NE): 120.350 (540-788-4078)
WX AWOS-3 at GVE (18 nm SW): 120.225 (540-832-2095)
WX AWOS-3 at RMN (20 nm E): 126.325 (540-657-8283)

Nearby radio navigation aids

VOR radial/distance  VOR name  Freq  Var
CSNr186/18.5CASANOVA VORTAC116.3006W
GVEr041/23.5GORDONSVILLE VORTAC115.6006W
BRVr279/24.2BROOKE VORTAC114.5009W
LDNr159/35.1LINDEN VORTAC114.3006W

 
NDB name  Hdg/Dist  Freq  Var  ID
NAILR176/7.535110WMSQ -- ... --.-
SHANNON292/20.023710WEZF . --.. ..-.
CAVERNS137/35.924509WLUA .-.. ..- .-

Airport Services

Runway Information

Runway 1/19

Dimensions: 1900 x 50 ft. / 579 x 15 m
Surface: turf, in good condition
RUNWAY 1  RUNWAY 19
Traffic pattern: leftleft
Displaced threshold: 500 ft.no
Obstructions: 80 ft. trees, 200 ft. from runwaynone

Airport Ownership and Management from official FAA records

Ownership: Privately-owned
Owner: RANDY L SIMPSON
29200 FRIENDSHIP LA
RHOADESVILLE, VA 22542
Phone 540-850-0030
Manager: RANDY L SIMPSON
29200 FRIENDSHIP LA
RHOADESVILLE, VA 22542
Phone 540-850-0030

Airport Operational Statistics

Aircraft based on the field: 1
Single engine airplanes: 1
    

Additional Remarks

FOR CD CTC POTOMAC APCH AT 866-709-4993.

Instrument Procedures

There are no published instrument procedures at VG12.

Some nearby airports with instrument procedures:

KOMH - Orange County Airport (10 nm SW)
KCJR - Culpeper Regional Airport (12 nm N)
KHWY - Warrenton/Fauquier Airport (17 nm NE)
KGVE - Gordonsville Municipal Airport (18 nm SW)
KRMN - Stafford Regional Airport (20 nm E)
 
Loc | Ops | Rwys | IFR | FBO | Links
Com | Nav | Svcs | Stats | Notes
Area around VG12 (Simpsonville Airport)
 
Road maps at: MapQuest Bing Google
 
Aerial photo
No photo
 
Sectional chart

 
Airport distance calculator
Flying to Simpsonville Airport? Find the distance to fly.

From to VG12

Sunrise and sunset
Times for 26-May-2022
 Local
(UTC-4)
 Zulu
(UTC)
Morning civil twilight05:2309:23
Sunrise05:5309:53
Sunset20:2400:24
Evening civil twilight20:5400:54

Current date and time
Zulu (UTC)  26-May-2022 21:40:48
Local (UTC-4)  26-May-2022 17:40:48
 
METAR
KOMH 
10nm SW 
262115Z AUTO 00000KT 10SM OVC011 20/17 A3013 RMK AO2
KCJR 
17nm NW 
262115Z AUTO 00000KT 10SM OVC014 21/18 A3013 RMK AO2 T02120176
KHWY 
17nm NE 
262115Z AUTO 00000KT 10SM OVC014 21/19 A3012 RMK AO2 T02130186
KGVE 
18nm SW 
262115Z AUTO 20004KT 10SM OVC014 20/17 A3013 RMK AO1 T02020174
KLKU 
20nm S 
262115Z AUTO 20003KT 10SM OVC010 20/18 A3014 RMK AO2 T01960179
KRMN 
20nm E 
262115Z AUTO 13004KT 10SM OVC011 22/18 A3016 RMK AO2 T02200181
TAF
KNYG 
29nm E 
2521/2621 12009KT 9999 SCT040 OVC060 QNH3029INS BECMG 2602/2604 VRB06KT 9999 SCT020 OVC050 QNH3009INS T14/2610Z T21/2621Z LAST NO AMENDS UNTIL 2609
KCHO 
30nm SW 
261913Z 2619/2718 17005KT P6SM OVC015 FM270400 14003KT P6SM OVC008 FM270900 17005KT 6SM -SHRA BR OVC003 FM271200 18007KT 4SM SHRA BR OVC008 FM271500 18007KT 4SM SHRA BR OVC010 FM271700 19008KT 6SM SHRA VCTS OVC015CB
NOTAMs
Click for the latest NOTAMs
NOTAMs are issued by the DoD/FAA and will open in a separate window not controlled by AirNav.

 

 
 

Would you like to see your business listed on this page?

 If your business provides an interesting product or service to pilots, flight crews, aircraft, or users of the Simpsonville Airport, you should consider listing it here.  To start the listing process, click on the button below
 
Add a business
 

Other Pages about Simpsonville Airport

Update a link
 
Copyright © AirNav, LLC. All rights reserved. Privacy Policy  Contact